Weather Roundup
Issued by NWS Sterling, VA

Home | Current Version | Previous Version | Text Only | Print | Product List | Glossary On
Versions: 1 2 3 4 5 6 7 8 9 10 11 12 13 14 15 16 17 18 19 20 21 22 23 24 25 26 27 28 29 30 31 32 33 34 35 36 37 38 39 40 41 42 43 44 45 46 47 48 49 50
000
NZUS51 KLWX 240611
HRRLWX

HOURLY OBSERVATIONS AROUND THE LWX CWA
100 AM EST MON FEB 24 2020

Note: "FAIR" indicates few or no clouds below 12,000 feet
with no significant weather and/or obstructions to visibility.

 * =Non NWS site. Station does not report significant weather
    and/or obstructions to visibility.

...DOWNTOWN AREAS...

CITY           SKY/WX    TMP DP  RH WIND       PRES   REMARKS
WASHINGTON NAT MOCLDY    41  30  65 NE3       30.08F
MD SCIENCE CTR   N/A     42  27  55 MISG      30.08F


...WASHINGTON SUBURBS...

CITY           SKY/WX    TMP DP  RH WIND       PRES   REMARKS
DULLES         FAIR      30  19  63 CALM      30.07S
MANASSAS*      FAIR      29  24  82 CALM      30.07
LEESBURG*      FAIR      32  25  74 CALM      30.08F
GAITHERSBURG*  FAIR      32  18  56 CALM      30.07F
FT BELVOIR     FAIR      32  23  67 CALM        N/A
QUANTICO       FAIR      34  32  92 W7        30.09S WCI  28
ANDREWS AFB    FAIR      42  27  54 SW7       30.06F
COLLEGE PARK*  FAIR      31  21  65 CALM      30.08S

...CENTRAL VIRGINIA...

CITY           SKY/WX    TMP DP  RH WIND       PRES   REMARKS
CULPEPER*      FAIR      29  21  71 CALM      30.08S
CHARLOTTESVILL FAIR      44  20  38 S5        30.06F
WARRENTON*     FAIR      27  20  76 CALM      30.06S
ORANGE*        FAIR      34  23  64 SW3       30.07F
GORDONSVILLE*  FAIR      32  26  80 CALM      30.06F
STAFFORD*      FAIR      33  22  64 CALM      30.11F
FREDERICKSBRG* FAIR      34  27  76 CALM      30.07F
LOUISA*        FAIR      42  24  50 SW3       30.11F
ASHLAND        FAIR      42  28  57 S3        30.11S
RICHMOND       FAIR      46  29  51 SW7       30.10F

...NORTHEAST/CENTRAL MARYLAND...

CITY           SKY/WX    TMP DP  RH WIND       PRES   REMARKS
BWI AIRPORT    FAIR      32  19  58 CALM      30.07F
ANNAPOLIS      FAIR      42  38  85 S3        30.07F
MARTIN AIRPORT FAIR      32  30  93 CALM      30.10S
ABERDEEN*      FAIR      27  23  84 CALM      30.09F
FREDERICK*     FAIR      30  27  86 CALM      30.08S
FORT MEADE*    FAIR      28  21  74 CALM      30.10F

...SOUTHERN MARYLAND...

CITY           SKY/WX    TMP DP  RH WIND       PRES   REMARKS
PATUXENT RIVER FAIR      49  32  52 SW10      30.08F
ST MARYS CITY  FAIR      44  33  65 S3        30.08F
LEONARDTOWN*   FAIR      45  30  57 S3        30.10S

...MARYLAND EASTERN SHORE...

CITY           SKY/WX    TMP DP  RH WIND       PRES   REMARKS
SALISBURY      FAIR      39  32  76 S6        30.11F WCI  35
CAMBRIDGE*       N/A     37  36  93 S5        30.10S WCI  34
OCEAN CITY     FAIR      43  39  86 SW7       30.12F
BAY BRIDGE AP* FAIR      43  39  87 S6        30.08F
EASTON*        FAIR      42  35  75 S5        30.12F

...SHENANDOAH VALLEY...

CITY           SKY/WX    TMP DP  RH WIND       PRES   REMARKS
MARTINSBURG    MOCLDY    32  19  58 CALM      30.05S
HAGERSTOWN APT FAIR      41  14  33 CALM      30.05S
STAUNTON*      FAIR      28  22  76 CALM      30.08S
WINCHESTER*    CLOUDY    36  19  51 CALM      30.04S
FRONT ROYAL*   CLOUDY    37  18  44 CALM      30.05S
LURAY*         FAIR      32  21  64 CALM      30.06S
NEW MARKET*    MOCLDY    31  23  74 CALM      30.06S
WAYNESBORO*    FAIR      36  18  48 CALM      30.06S

...APPALACHIANS...

CITY           SKY/WX    TMP DP  RH WIND       PRES   REMARKS
PETERSBURG WV* FAIR      33  25  75 CALM      30.06F
CUMBERLAND*    CLOUDY    42  22  45 CALM      30.09S
OAKLAND*       FAIR      37  14  38 SW10      30.01F WCI  30
HOT SPRINGS*   FAIR      37   9  30 W15       30.05S WCI  28
ELKINS         MOCLDY    30  22  72 CALM      30.06F
BEDFORD PA*    CLOUDY    34  22  61 CALM      30.03F
JOHNSTOWN      FAIR      39  14  36 SW9       29.99F WCI  33
ALTOONA        MOCLDY    40  16  37 SW9       30.02F WCI  34

...SOUTHERN PENNSYLVANIA/DELAWARE...

CITY           SKY/WX    TMP DP  RH WIND       PRES   REMARKS
YORK           FAIR      24  17  74 CALM      30.06F
WILMINGTON     FAIR      32  29  88 CALM      30.10S

...MARINE OBSERVATIONS...

STATION/POSITION TIME  TEMP    WIND        PRES
                       AIR SEA DIR/SP/G
                 (UTC) (F)     (DEG/KT/KT) (MB)
THOMAS PT LIGHT  0600   44 42  150/  9/ 10 1019.3F
BALT KEY BRIDGE  0530   40     310/  1/  2 1018.7F
TOLCHESTER       0518   43 44  200/  1/  3 1018.9
LEWISETTA        0518   49 44  220/  8/ 10 1019.2
SOLOMONS ISLAND  0530   47 44  200/  6/  7 1018.6F
PINEY POINT      0530          160/  4/  6   N/A
POTOMAC BUOY     0554   44 44  150/  4/ 10 1019.2F
CAMBRIDGE        0518   43 43  160/  5/  7 1019.2
BISHOPS HEAD     0530   45 45  190/ 10/ 12 1019.0F





USA.gov is the U.S. government's official web portal to all federal, state and local government web resources and services.
  • National Weather Service
  • El Paso, TX Weather Forecast Office
  • 7955 Airport Rd
  • Santa Teresa, NM 88008
  • (575) 589-4088
  • Page Author: EPZ Webmaster
  • Web Master's E-mail: sr-epz.webmaster@noaa.gov
  • Page last modified: Feb 14th, 2020 19:38 UTC